When you browse on this site, cookies collect data to enhance your experience and personalize the content and advertising you see.
Visit our Privacy Policy to learn more. By continuing to use the site, you agree to this use of cookies and data.
  • In Portugal
  • List of Countries
  • For 7 days
  • Water Temperature
  • Weather Map
  • Weather Widgets
  • user-avatar
    Login

    Hourly Weather Ghazni

    Today, 26 February, Wednesday

    Time Temperature Precipitation Wind Pressure Humidity
    00:00 0°C° 0 mm 1 mps 583 mmHg 55%
    01:00 0°C° 0 mm 1 mps 583 mmHg 57%
    02:00 0°C° 0 mm 1 mps 583 mmHg 58%
    03:00 0°C° 0 mm 1 mps 583 mmHg 58%
    04:00 0°C° 0 mm 1 mps 583 mmHg 59%
    05:00 0°C° 0 mm 1 mps 582 mmHg 59%
    06:00 0°C° 0 mm 1 mps 583 mmHg 60%
    07:00 +1°C° 0 mm 1 mps 583 mmHg 60%
    08:00 +1°C° 0 mm 1 mps 584 mmHg 60%
    09:00 +2°C° 0 mm 1 mps 584 mmHg 69%
    10:00 +2°C° 0 mm 0 mps 585 mmHg 78%
    11:00 +3°C° 0 mm 0 mps 585 mmHg 87%
    12:00 +4°C° 0 mm 0 mps 585 mmHg 88%
    13:00 +4°C° 0 mm 0 mps 584 mmHg 88%
    14:00 +4°C° 0 mm 0 mps 584 mmHg 89%
    15:00 +4°C° 0 mm 0 mps 584 mmHg 84%
    16:00 +4°C° 0 mm 0 mps 583 mmHg 78%
    17:00 +4°C° 0 mm 0 mps 583 mmHg 73%
    18:00 +4°C° 0 mm 0 mps 583 mmHg 72%
    19:00 +4°C° 0 mm 0 mps 584 mmHg 71%
    20:00 +4°C° 0 mm 0 mps 584 mmHg 69%
    21:00 +3°C° 0 mm 0 mps 584 mmHg 69%
    22:00 +3°C° 0 mm 0 mps 584 mmHg 68%
    23:00 +3°C° 0 mm 0 mps 584 mmHg 68%

    Tomorrow, 27 February, Thursday

    Time Temperature Precipitation Wind Pressure Humidity
    00:00 +4°C° 0 mm 1 mps 584 mmHg 67%
    01:00 +3°C° 0 mm 1 mps 583 mmHg 67%
    02:00 +3°C° 0 mm 1 mps 583 mmHg 67%
    03:00 +3°C° 0 mm 1 mps 583 mmHg 67%
    04:00 +3°C° 0 mm 1 mps 582 mmHg 67%
    05:00 +2°C° 0 mm 1 mps 582 mmHg 67%
    06:00 +2°C° 0 mm 1 mps 582 mmHg 67%
    07:00 +3°C° 0 mm 1 mps 583 mmHg 66%
    08:00 +3°C° 0 mm 1 mps 583 mmHg 66%
    09:00 +4°C° 0 mm 1 mps 583 mmHg 73%
    10:00 +5°C° 0 mm 1 mps 584 mmHg 81%
    11:00 +6°C° 0 mm 1 mps 584 mmHg 89%
    12:00 +6°C° 0 mm 1 mps 583 mmHg 89%
    13:00 +7°C° 0 mm 1 mps 583 mmHg 89%
    14:00 +7°C° 0 mm 1 mps 583 mmHg 90%
    15:00 +7°C° 0.2 mm 1 mps 582 mmHg 88%
    16:00 +7°C° 0.2 mm 1 mps 582 mmHg 85%
    17:00 +6°C° 0.2 mm 1 mps 581 mmHg 83%
    18:00 +6°C° 0.8 mm 1 mps 581 mmHg 83%
    19:00 +5°C° 0.8 mm 1 mps 581 mmHg 82%
    20:00 +3°C° 0.8 mm 2 mps 581 mmHg 82%
    21:00 +3°C° 0.5 mm 2 mps 581 mmHg 85%
    22:00 +3°C° 0.5 mm 2 mps 581 mmHg 89%
    23:00 +3°C° 0.5 mm 2 mps 581 mmHg 92%

    Day after tomorrow, 28 February, Friday

    Time Temperature Precipitation Wind Pressure Humidity
    00:00 +3°C° 0.3 mm 2 mps 581 mmHg 93%
    01:00 +3°C° 0.3 mm 1 mps 580 mmHg 94%
    02:00 +3°C° 0.3 mm 1 mps 580 mmHg 94%
    03:00 +3°C° 0.1 mm 1 mps 580 mmHg 94%
    04:00 +2°C° 0.1 mm 0 mps 580 mmHg 94%
    05:00 +1°C° 0.1 mm 0 mps 580 mmHg 94%
    06:00 +1°C° 0 mm 0 mps 580 mmHg 94%
    07:00 +1°C° 0 mm 0 mps 580 mmHg 95%
    08:00 +1°C° 0 mm 0 mps 581 mmHg 95%
    09:00 +2°C° 0 mm 0 mps 581 mmHg 94%
    10:00 +3°C° 0 mm 1 mps 581 mmHg 94%
    11:00 +4°C° 0 mm 1 mps 582 mmHg 93%
    12:00 +4°C° 0 mm 1 mps 581 mmHg 92%
    13:00 +4°C° 0 mm 1 mps 581 mmHg 90%
    14:00 +5°C° 0 mm 1 mps 581 mmHg 89%
    15:00 +4°C° 0 mm 1 mps 580 mmHg 87%
    16:00 +4°C° 0 mm 1 mps 580 mmHg 86%
    17:00 +4°C° 0 mm 1 mps 580 mmHg 84%
    18:00 +3°C° 0 mm 1 mps 580 mmHg 83%
    19:00 +2°C° 0 mm 1 mps 580 mmHg 82%
    20:00 +1°C° 0 mm 1 mps 580 mmHg 81%
    21:00 +1°C° 0 mm 1 mps 580 mmHg 78%
    22:00 +1°C° 0 mm 1 mps 580 mmHg 76%
    23:00 +1°C° 0 mm 1 mps 580 mmHg 73%

    29 February, Saturday

    Time Temperature Precipitation Wind Pressure Humidity
    00:00 0°C° 0 mm 1 mps 580 mmHg 71%
    01:00 0°C° 0 mm 1 mps 580 mmHg 69%
    02:00 0°C° 0 mm 1 mps 580 mmHg 67%
    03:00 0°C° 0 mm 1 mps 579 mmHg 65%
    04:00 0°C° 0 mm 1 mps 579 mmHg 64%
    05:00 0°C° 0 mm 1 mps 579 mmHg 62%
    06:00 0°C° 0 mm 1 mps 580 mmHg 61%
    07:00 0°C° 0 mm 1 mps 580 mmHg 61%
    08:00 0°C° 0 mm 1 mps 580 mmHg 60%
    09:00 +1°C° 0 mm 1 mps 581 mmHg 64%
    10:00 +3°C° 0 mm 1 mps 581 mmHg 67%
    11:00 +4°C° 0 mm 1 mps 582 mmHg 71%
    12:00 +5°C° 0 mm 1 mps 582 mmHg 71%
    13:00 +5°C° 0 mm 1 mps 582 mmHg 71%
    14:00 +6°C° 0 mm 1 mps 581 mmHg 72%
    15:00 +5°C° 0 mm 1 mps 581 mmHg 70%
    16:00 +5°C° 0 mm 1 mps 581 mmHg 69%
    17:00 +5°C° 0 mm 1 mps 581 mmHg 67%
    18:00 +4°C° 0 mm 1 mps 581 mmHg 68%
    19:00 +3°C° 0 mm 1 mps 581 mmHg 68%
    20:00 +2°C° 0 mm 1 mps 581 mmHg 68%
    21:00 +2°C° 0 mm 1 mps 581 mmHg 67%
    22:00 +2°C° 0 mm 1 mps 582 mmHg 66%
    23:00 +2°C° 0 mm 1 mps 582 mmHg 65%

    1 March, Sunday

    Time Temperature Precipitation Wind Pressure Humidity
    00:00 +1°C° 0 mm 1 mps 582 mmHg 64%
    01:00 +1°C° 0 mm 1 mps 582 mmHg 63%
    02:00 +1°C° 0 mm 1 mps 582 mmHg 61%
    03:00 +1°C° 0 mm 1 mps 582 mmHg 60%
    04:00 -1°C° 0 mm 2 mps 582 mmHg 59%
    05:00 -1°C° 0 mm 2 mps 582 mmHg 58%
    06:00 -1°C° 0 mm 2 mps 582 mmHg 58%
    07:00 -1°C° 0 mm 2 mps 582 mmHg 58%
    08:00 -1°C° 0 mm 2 mps 583 mmHg 57%
    09:00 +2°C° 0 mm 1 mps 584 mmHg 60%
    10:00 +4°C° 0 mm 1 mps 584 mmHg 62%
    11:00 +5°C° 0 mm 1 mps 585 mmHg 64%
    12:00 +6°C° 0 mm 1 mps 584 mmHg 65%
    13:00 +6°C° 0 mm 1 mps 584 mmHg 65%
    14:00 +6°C° 0 mm 1 mps 584 mmHg 66%
    15:00 +6°C° 0 mm 1 mps 584 mmHg 64%
    16:00 +6°C° 0 mm 1 mps 583 mmHg 63%
    17:00 +6°C° 0 mm 1 mps 583 mmHg 61%
    18:00 +5°C° 0 mm 1 mps 583 mmHg 62%
    19:00 +4°C° 0 mm 1 mps 583 mmHg 62%
    20:00 +2°C° 0 mm 2 mps 583 mmHg 62%
    21:00 +2°C° 0 mm 2 mps 583 mmHg 61%
    22:00 +3°C° 0 mm 1 mps 583 mmHg 60%
    23:00 +3°C° 0 mm 1 mps 583 mmHg 59%

    2 March, Monday

    Time Temperature Precipitation Wind Pressure Humidity
    00:00 +2°C° 0 mm 1 mps 583 mmHg 58%
    01:00 +2°C° 0 mm 1 mps 582 mmHg 57%
    02:00 +2°C° 0 mm 1 mps 582 mmHg 56%
    03:00 +2°C° 0 mm 1 mps 582 mmHg 56%
    04:00 +1°C° 0 mm 1 mps 581 mmHg 55%
    05:00 +1°C° 0 mm 1 mps 581 mmHg 55%
    06:00 +1°C° 0 mm 1 mps 581 mmHg 54%
    07:00 +2°C° 0 mm 1 mps 582 mmHg 53%
    08:00 +2°C° 0 mm 1 mps 582 mmHg 52%
    09:00 +3°C° 0 mm 1 mps 583 mmHg 53%
    10:00 +4°C° 0 mm 1 mps 583 mmHg 53%
    11:00 +6°C° 0 mm 1 mps 584 mmHg 53%
    12:00 +6°C° 0 mm 1 mps 583 mmHg 54%
    13:00 +6°C° 0 mm 0 mps 583 mmHg 55%
    14:00 +6°C° 0 mm 0 mps 583 mmHg 57%
    15:00 +7°C° 0 mm 1 mps 582 mmHg 55%
    16:00 +7°C° 0 mm 1 mps 582 mmHg 53%
    17:00 +7°C° 0 mm 1 mps 582 mmHg 52%
    18:00 +6°C° 0 mm 1 mps 582 mmHg 54%
    19:00 +5°C° 0 mm 1 mps 582 mmHg 57%
    20:00 +4°C° 0 mm 1 mps 582 mmHg 59%
    21:00 +3°C° 0 mm 1 mps 582 mmHg 59%
    22:00 +3°C° 0 mm 1 mps 582 mmHg 58%
    23:00 +3°C° 0 mm 1 mps 582 mmHg 58%
    Show more